Temperature
16 15 15 15 15 15 15 15 15 15 15 15 15 15 15 15 15 15 15 15 15 15 15 15 15 15 14 14 14 15 15 15 15 15 15 14 14 14 14 15 14 14 14
16 15 15 15 15 15 15 15 15 15 15 15 15 15 15 15 15 15 15 15 15 15 15 15 15 15 14 14 14 14 15 15 15 15 15 14 14 14 14 14 14 14 14
16 15 15 15 15 15 15 15 15 15 15 15 15 15 15 15 15 15 15 15 15 15 15 14 14 14 14 14 14 14 15 15 15 15 15 14 14 14 14 14 14 14 14
16 15 15 15 15 15 15 15 15 15 15 15 15 15 15 15 15 15 15 15 15 15 15 14 14 14 14 14 14 14 14 14 15 15 14 14 14 13 13 13 13 13 13
15 15 15 15 15 15 15 15 15 15 14 14 14 15 15 15 15 15 15 14 14 14 14 14 14 14 14 14 14 14 14 14 14 14 14 14 14 13 13 13 13 13 13
15 15 15 15 15 15 15 15 15 15 14 14 14 14 14 15 15 15 14 14 14 14 14 14 14 14 14 14 14 14 14 14 14 14 14 14 13 13 13 13 13 13 13
15 15 15 14 14 14 15 15 15 14 14 14 14 14 14 14 14 14 14 14 14 14 14 14 14 14 14 14 14 14 14 14 14 14 13 13 13 13 13 13 13 13 13
15 14 14 14 14 14 14 15 15 14 14 14 14 14 14 14 14 14 14 14 14 14 14 14 14 14 14 14 14 14 14 14 14 13 13 13 13 13 13 13 13 13 13
14 14 14 14 14 14 14 14 14 14 14 14 14 14 14 14 14 14 14 14 14 14 14 14 14 13 13 13 13 13 13 13 13 13 13 13 13 13 12 13 12 12 12
14 14 14 14 14 14 14 14 14 14 14 14 14 14 14 14 14 14 14 14 14 14 14 13 13 13 13 13 13 13 13 13 13 13 13 13 13 12 12 12 12 12 12
13 13 13 13 14 14 13 13 14 13 13 13 14 14 14 14 14 14 14 14 13 13 13 13 13 13 13 13 13 13 13 13 13 13 12 12 12 12 12 12 12 12 12
13 13 13 13 13 13 13 13 13 13 13 13 13 13 13 13 13 13 13 13 13 13 13 13 13 13 13 13 13 13 13 13 12 12 12 12 12 12 12 12 12 12 12
13 13 13 13 13 13 13 13 13 13 13 13 13 13 13 13 13 13 13 13 13 13 13 13 13 13 12 12 12 12 12 12 12 12 12 12 12 12 12 12 12 12 12
12 12 12 12 12 12 12 13 13 12 12 12 12 12 12 12 13 13 13 13 12 12 12 12 12 12 12 12 12 12 12 12 12 12 12 12 12 12 12 12 12 12 12
12 12 12 12 12 12 12 12 12 12 12 12 12 12 12 12 12 12 12 12 12 12 12 12 12 12 12 12 12 12 12 12 12 12 12 12 12 12 12 12 12 11 11
12 12 12 12 12 12 12 12 12 12 12 12 12 12 11 12 12 12 12 12 12 12 12 12 12 12 12 12 12 12 11 11 11 12 12 11 11 11 11 11 11 11 11
11 11 11 11 11 11 11 11 11 11 11 11 11 11 11 11 11 11 11 11 11 11 11 11 11 11 11 11 11 11 11 11 11 11 11 11 11 11 11 11 11 11 11
10 11 11 11 11 11 11 11 11 11 11 11 11 11 11 11 11 11 11 11 11 11 11 11 11 11 11 11 11 11 11 11 11 11 11 11 11 11 11 11 11 11 10
10 10 10 10 10 10 10 10 10 10 10 10 10 10 10 10 10 10 10 10 10 10 10 10 10 10 10 11 11 11 11 11 11 11 11 11 11 11 11 11 11 11 10
9 9 10 10 10 10 10 10 10 10 10 10 10 10 10 10 10 10 10 10 10 10 10 10 10 10 10 10 10 10 10 10 10 10 10 10 10 10 10 10 10 10 10
9 9 9 9 9 9 9 9 9 10 9 10 10 10 10 9 9 9 9 9 9 9 9 9 9 9 9 9 9 10 10 10 10 10 10 10 10 10 10 10 10 10 10
8 8 8 8 8 8 9 9 9 9 9 9 9 9 9 9 9 9 9 9 9 9 9 9 9 9 9 9 8 8 9 9 9 10 10 10 10 10 10 10 9 9 9
8 8 8 8 8 8 8 8 8 8 8 8 8 8 8 8 8 8 8 8 8 8 8 8 8 8 8 8 8 7 7 7 8 9 9 9 9 9 9 9 9 9 9
7 7 7 7 7 7 7 7 7 7 7 8 8 8 8 8 8 8 8 8 8 8 8 8 8 7 7 7 7 7 7 7 7 7 8 8 8 9 9 9 9 9 9
7 7 7 7 7 7 7 7 7 7 7 7 7 7 7 7 7 7 7 7 7 7 7 7 7 7 7 7 7 7 7 6 6 6 7 7 8 8 8 8 8 8 8
6 6 6 6 6 6 6 6 6 6 6 6 6 6 7 7 7 7 7 7 7 7 7 7 7 7 6 6 6 6 6 6 6 6 6 6 7 7 8 8 8 8 8
Wind_Speed
2 3 7 8 10 10 10 11 11 11 12 12 13 13 14 14 13 13 13 13 13 13 14 14 14 14 14 14 14 15 15 15 15 16 16 16 16 16 16 16 15 14 16
5 6 8 9 10 10 10 10 10 10 11 12 13 13 13 13 12 12 12 12 12 12 13 13 14 13 13 13 14 14 15 15 15 15 14 14 14 14 14 14 14 13 14
6 7 8 10 10 10 10 10 10 10 11 11 12 12 12 11 11 11 11 12 11 11 11 12 12 13 13 13 13 14 14 14 14 14 13 11 12 13 14 13 13 13 13
7 7 8 11 10 10 10 10 10 10 10 10 11 11 11 10 10 10 10 11 10 11 11 11 11 12 12 13 13 13 12 12 13 12 11 10 10 12 12 12 12 12 12
6 6 8 11 10 10 9 9 9 10 9 10 10 10 10 10 9 9 9 10 9 9 10 10 10 11 12 12 12 11 11 12 11 11 10 9 9 10 11 11 11 11 12
5 6 8 10 10 10 9 9 9 9 9 10 10 9 9 9 9 9 9 9 9 9 9 9 10 10 10 10 10 10 11 10 10 9 8 7 7 9 10 10 10 10 10
5 5 7 9 9 9 8 8 8 8 8 9 9 9 8 8 8 8 8 8 8 8 8 8 8 9 9 9 9 9 9 9 9 8 6 5 6 7 8 9 9 9 9
5 5 6 9 9 8 8 8 8 8 8 7 8 8 7 7 7 7 8 8 7 7 7 7 7 8 8 8 8 8 8 8 7 6 4 4 5 6 7 8 8 8 8
6 5 5 6 7 7 7 7 7 7 7 7 7 6 7 7 6 6 7 7 6 6 6 6 6 7 7 7 6 6 6 7 6 4 3 3 4 5 6 6 6 6 7
5 5 4 5 5 6 6 7 7 6 6 6 6 6 6 6 6 6 5 6 6 5 5 5 5 5 6 5 5 5 5 6 5 3 2 3 3 4 4 5 5 5 5
4 3 4 4 5 5 5 6 6 6 6 6 6 6 5 5 5 5 5 5 5 5 4 4 4 4 5 5 4 5 5 4 3 2 1 3 3 3 4 4 4 4 4
2 1 2 3 4 5 4 4 5 5 5 5 5 5 5 4 4 4 4 4 4 4 4 4 4 4 4 4 3 4 4 3 2 1 2 3 4 4 4 4 4 4 4
2 1 1 2 3 4 3 4 4 4 4 4 4 4 4 4 3 3 3 3 2 2 3 2 3 3 3 3 2 2 2 2 1 1 2 4 5 5 4 5 5 5 5
2 1 1 2 3 3 3 3 3 3 3 3 3 3 4 3 3 2 2 2 2 2 2 2 2 2 2 2 2 2 1 2 2 2 3 4 5 5 5 5 5 5 5
1 0 0 1 2 2 2 2 2 2 2 3 3 3 4 3 2 2 2 2 2 2 2 2 2 2 1 1 2 2 1 1 2 3 3 4 5 6 6 6 6 5 5
1 1 0 1 1 2 2 1 1 2 2 3 3 2 3 3 3 2 2 1 1 2 2 2 2 3 2 2 2 2 2 3 3 3 4 4 5 6 7 7 6 6 6
1 0 1 1 1 1 1 2 1 2 2 2 2 2 2 3 3 3 2 2 2 2 2 2 1 2 2 2 2 2 2 3 3 4 4 5 5 6 7 7 7 7 6
2 1 0 1 1 1 1 1 1 1 2 2 2 2 2 2 3 3 2 2 2 2 2 1 1 1 2 2 2 2 2 2 3 4 4 5 5 5 6 6 7 7 7
1 2 1 1 1 1 1 1 1 1 1 1 1 1 1 1 2 3 3 2 2 2 1 1 1 1 2 1 2 2 2 3 3 3 3 4 5 5 5 5 6 6 7
1 2 2 2 1 1 0 1 1 1 0 0 0 1 1 1 1 2 2 2 2 2 1 1 1 1 1 1 1 2 2 3 2 2 3 3 4 4 4 4 3 4 5
2 2 2 2 2 1 0 0 1 1 1 1 1 1 1 1 1 1 1 2 2 2 2 2 1 1 1 0 0 2 2 2 2 2 2 2 3 3 4 4 4 4 4
1 1 2 2 2 2 1 1 1 1 1 1 1 1 1 1 1 2 2 2 2 2 2 2 2 1 1 1 1 0 2 3 2 2 2 2 2 2 3 4 5 5 5
1 1 1 1 2 2 2 1 2 1 1 1 1 1 2 2 2 2 2 2 3 3 3 3 3 3 2 1 1 1 1 3 3 2 2 2 2 2 3 4 5 6 7
2 1 2 1 1 1 1 1 0 0 1 2 2 2 3 2 2 2 2 3 3 3 3 4 3 3 3 3 2 1 2 1 1 2 2 2 2 3 3 4 5 6 8
1 1 2 2 2 2 2 1 1 1 1 1 1 1 2 2 2 2 2 2 3 3 4 4 3 3 3 3 3 1 1 1 2 2 4 3 3 3 3 5 5 7 8
1 1 2 2 2 2 2 1 1 1 1 1 1 2 2 2 2 2 2 2 3 3 4 4 4 5 4 4 3 3 3 2 2 2 4 4 4 3 4 4 5 7 8
Wind_Direction
184 190 157 140 133 125 124 118 116 118 118 115 113 111 110 108 106 105 105 103 102 100 99 96 95 92 91 89 87 87 86 85 85 85 84 84 84 82 81 77 74 74 76
162 166 151 138 134 130 125 120 120 121 119 118 116 115 114 113 110 108 107 106 106 106 104 101 98 96 94 91 90 90 89 88 86 84 82 83 84 84 83 80 78 78 78
141 149 147 136 130 129 127 124 121 122 122 121 119 119 118 117 115 112 110 109 107 107 106 104 102 102 99 96 94 93 93 91 89 85 79 78 84 87 85 82 80 80 80
134 139 144 136 132 128 126 126 126 126 125 124 123 121 121 120 119 117 116 113 110 109 108 107 106 106 103 101 99 97 97 95 92 86 76 74 81 89 87 84 81 81 82
118 129 142 137 133 128 126 128 127 130 131 128 125 124 124 123 123 120 119 118 113 110 109 109 107 107 106 105 104 102 101 99 96 85 76 72 78 90 89 87 84 85 84
115 124 138 135 132 128 126 127 126 127 130 133 130 126 125 127 125 123 123 122 119 117 116 114 113 110 109 107 107 105 104 103 95 85 78 75 78 90 91 90 89 86 85
119 116 131 134 131 126 126 125 123 124 125 130 134 133 130 127 128 125 124 125 125 123 121 119 116 115 112 110 108 108 106 104 96 88 83 80 88 94 96 95 95 90 89
116 106 122 129 127 124 124 123 121 117 120 119 127 131 132 131 129 126 128 126 125 127 127 124 120 115 115 115 113 111 111 107 100 90 89 92 100 102 103 100 97 93 95
95 91 95 116 119 120 120 123 120 118 119 120 117 121 126 126 131 129 128 133 131 126 123 126 126 123 120 116 116 116 114 112 103 98 98 107 118 113 110 107 103 98 100
82 78 72 87 99 107 113 119 118 116 119 120 120 115 117 123 124 128 127 131 135 132 127 128 127 133 129 124 119 118 116 111 104 109 120 143 139 132 123 116 110 110 112
86 73 73 75 81 92 106 112 113 112 111 114 119 118 111 114 123 125 129 131 139 144 139 142 136 130 126 124 125 124 116 106 111 111 153 168 168 164 149 137 130 131 130
126 103 78 81 76 83 99 102 102 107 106 107 113 118 118 115 117 122 124 134 147 151 149 147 148 130 111 104 113 121 113 117 122 143 199 198 197 195 184 169 158 152 150
164 123 96 93 83 89 88 98 98 102 106 104 107 119 127 119 113 112 117 124 133 136 130 139 137 121 117 116 103 111 132 138 157 211 227 216 209 211 206 194 183 171 167
123 125 100 107 96 90 93 101 102 102 111 115 121 126 128 120 114 115 120 137 134 128 124 123 122 129 133 142 140 132 151 179 198 220 235 230 220 221 218 203 188 185 178
129 137 141 127 124 110 99 104 111 124 134 141 142 148 146 139 147 142 141 141 144 145 138 138 147 151 163 167 170 172 190 209 225 228 238 240 232 227 225 216 203 199 197
182 203 194 164 143 124 132 141 134 137 147 147 151 169 169 161 158 158 156 155 164 175 180 176 175 172 189 191 202 211 220 227 229 235 244 245 242 236 229 225 220 215 213
311 205 162 166 132 152 159 172 153 155 157 144 156 169 175 178 174 169 175 185 199 198 184 170 171 174 188 203 228 235 228 236 237 235 239 244 241 236 233 234 233 229 224
5 1 213 141 140 167 170 177 162 154 153 150 163 162 181 195 191 172 179 198 193 174 164 163 173 208 209 216 239 249 246 245 244 241 236 236 234 231 232 235 238 236 231
27 10 13 71 130 174 162 125 116 109 121 143 158 164 192 195 197 178 183 194 167 154 160 187 190 194 212 222 249 256 252 245 245 240 235 236 231 227 227 231 232 237 241
39 34 25 33 37 67 87 96 74 59 15 42 165 216 215 209 207 180 185 184 166 172 183 195 199 185 202 213 256 281 274 263 253 241 238 232 228 225 219 219 223 237 242
33 34 28 19 7 35 17 214 209 239 258 265 300 298 266 239 213 178 185 187 188 196 203 195 188 176 195 139 81 320 312 280 268 262 257 238 228 216 210 215 219 230 244
19 11 14 7 353 355 341 293 236 229 230 248 318 334 302 256 225 202 189 206 209 198 191 193 181 183 199 157 146 101 316 318 302 274 260 245 249 230 224 228 227 231 239
341 324 325 332 347 349 353 21 22 36 31 334 308 302 327 314 262 230 219 213 216 200 200 206 201 193 209 228 185 163 193 251 298 296 271 258 253 241 247 239 241 243 243
278 318 329 327 347 356 12 32 46 224 262 271 288 293 316 323 311 278 245 220 219 216 211 211 208 210 192 213 236 237 224 196 229 297 298 274 265 258 257 256 249 246 245
267 329 339 342 351 2 17 1 267 258 246 288 321 316 320 312 307 301 278 241 233 228 222 218 214 216 208 207 206 206 222 242 223 235 276 292 284 255 250 250 246 243 244
2 14 11 9 353 355 4 354 304 247 244 316 318 307 308 305 293 285 285 264 252 246 232 223 218 215 218 218 213 203 207 207 213 217 251 273 279 274 259 248 242 243 242
Height
1518 1520 1522 1523 1525 1526 1527 1529 1530 1531 1532 1533 1533 1534 1535 1535 1536 1537 1537 1538 1538 1539 1539 1540 1540 1541 1541 1541 1542 1542 1542 1542 1543 1543 1543 1544 1544 1544 1545 1545 1545 1546 1546
1517 1520 1522 1523 1525 1526 1528 1529 1530 1531 1532 1533 1534 1535 1536 1536 1537 1538 1538 1539 1539 1540 1540 1541 1541 1542 1542 1543 1543 1543 1544 1544 1544 1544 1545 1545 1546 1546 1546 1546 1547 1547 1548
1518 1520 1522 1523 1525 1526 1528 1530 1531 1532 1533 1534 1535 1536 1536 1537 1538 1539 1539 1540 1540 1541 1541 1542 1542 1543 1543 1544 1544 1544 1545 1545 1545 1546 1546 1546 1547 1547 1548 1548 1548 1548 1549
1518 1520 1521 1523 1525 1527 1528 1530 1531 1532 1533 1534 1535 1536 1537 1538 1538 1539 1540 1541 1541 1542 1542 1543 1543 1544 1544 1545 1545 1546 1546 1546 1547 1547 1548 1548 1548 1549 1549 1549 1550 1550 1550
1518 1520 1522 1524 1525 1527 1528 1530 1531 1532 1534 1535 1535 1536 1537 1538 1539 1540 1540 1541 1542 1542 1543 1544 1544 1545 1546 1546 1547 1547 1547 1548 1548 1549 1549 1549 1549 1550 1550 1550 1551 1551 1551
1518 1520 1522 1524 1525 1527 1528 1530 1531 1533 1534 1535 1535 1536 1537 1538 1539 1540 1541 1541 1542 1543 1544 1544 1545 1546 1546 1547 1548 1548 1548 1549 1549 1550 1550 1550 1551 1551 1551 1551 1552 1552 1552
1518 1520 1522 1524 1525 1527 1528 1530 1531 1533 1534 1535 1536 1536 1537 1538 1539 1540 1541 1541 1542 1543 1544 1545 1546 1546 1547 1548 1548 1549 1549 1549 1550 1550 1551 1551 1552 1552 1552 1552 1552 1553 1553
1519 1521 1522 1524 1525 1527 1528 1530 1531 1532 1533 1534 1535 1536 1537 1538 1539 1539 1540 1541 1542 1543 1544 1545 1546 1546 1547 1548 1549 1549 1549 1550 1550 1551 1551 1552 1552 1552 1553 1553 1553 1553 1553
1519 1521 1522 1523 1525 1527 1528 1529 1530 1532 1533 1534 1535 1536 1537 1538 1538 1539 1540 1541 1542 1542 1543 1544 1545 1546 1547 1548 1548 1549 1550 1550 1550 1551 1551 1552 1552 1553 1553 1553 1553 1553 1553
1519 1521 1522 1523 1524 1526 1527 1528 1530 1531 1532 1533 1534 1535 1536 1537 1538 1539 1539 1540 1541 1542 1543 1544 1545 1545 1546 1547 1548 1549 1549 1550 1550 1551 1552 1552 1552 1553 1553 1553 1553 1553 1553
1519 1520 1521 1522 1524 1525 1526 1527 1529 1530 1531 1532 1533 1534 1535 1536 1537 1538 1538 1539 1540 1541 1542 1543 1544 1545 1546 1546 1547 1548 1549 1549 1550 1550 1551 1552 1552 1552 1552 1553 1552 1553 1553
1517 1519 1520 1522 1523 1524 1525 1526 1527 1529 1530 1531 1531 1532 1533 1534 1535 1536 1537 1538 1539 1540 1541 1542 1543 1544 1544 1545 1546 1547 1548 1548 1549 1549 1550 1551 1551 1552 1552 1552 1552 1552 1552
1516 1518 1519 1520 1521 1523 1524 1525 1526 1527 1528 1529 1530 1531 1532 1533 1534 1535 1535 1536 1538 1538 1539 1540 1541 1542 1543 1544 1545 1545 1546 1547 1548 1548 1549 1550 1550 1551 1551 1551 1551 1551 1552
1515 1516 1518 1519 1520 1521 1523 1524 1525 1526 1527 1528 1529 1530 1530 1531 1532 1533 1534 1535 1536 1536 1537 1538 1539 1541 1541 1542 1543 1544 1545 1545 1546 1547 1548 1548 1549 1549 1550 1550 1550 1550 1551
1513 1515 1516 1517 1518 1520 1521 1522 1523 1524 1525 1526 1527 1528 1529 1529 1530 1531 1532 1533 1534 1534 1535 1536 1537 1538 1539 1540 1541 1542 1543 1543 1544 1545 1546 1547 1547 1547 1548 1548 1549 1549 1549
1512 1513 1514 1516 1517 1518 1519 1520 1521 1522 1523 1524 1525 1526 1526 1527 1528 1529 1529 1530 1531 1532 1533 1534 1535 1535 1536 1538 1538 1539 1540 1541 1542 1542 1543 1544 1545 1545 1546 1546 1547 1547 1547
1510 1511 1512 1514 1515 1516 1517 1518 1519 1520 1521 1522 1522 1523 1524 1525 1526 1526 1527 1528 1529 1529 1530 1531 1532 1533 1534 1534 1535 1536 1537 1538 1539 1540 1540 1541 1542 1543 1543 1544 1544 1544 1545
1508 1509 1510 1511 1513 1514 1515 1516 1517 1517 1518 1519 1520 1521 1521 1522 1523 1524 1524 1525 1526 1527 1527 1528 1529 1530 1530 1531 1532 1533 1534 1535 1536 1536 1537 1538 1538 1539 1540 1541 1541 1542 1542
1507 1507 1507 1509 1510 1511 1512 1513 1514 1515 1515 1516 1517 1518 1518 1519 1520 1521 1521 1522 1523 1524 1524 1525 1526 1526 1527 1528 1529 1529 1530 1531 1532 1533 1533 1534 1535 1535 1536 1537 1538 1538 1539
1504 1505 1505 1506 1507 1508 1509 1510 1511 1512 1512 1513 1514 1514 1515 1516 1517 1518 1518 1519 1520 1521 1521 1522 1522 1523 1524 1525 1525 1526 1526 1527 1528 1528 1529 1530 1531 1531 1532 1533 1534 1534 1535
1502 1502 1502 1503 1504 1505 1506 1506 1507 1508 1509 1510 1511 1511 1512 1512 1513 1514 1515 1516 1517 1517 1517 1518 1519 1520 1521 1521 1522 1522 1522 1523 1523 1524 1525 1526 1527 1528 1528 1529 1530 1530 1531
1499 1500 1500 1500 1501 1501 1502 1503 1504 1504 1505 1506 1507 1508 1508 1509 1510 1510 1511 1512 1513 1514 1514 1515 1516 1516 1517 1518 1519 1518 1518 1520 1519 1520 1520 1521 1522 1523 1524 1525 1526 1526 1526
1497 1498 1498 1498 1498 1498 1499 1500 1500 1501 1502 1503 1503 1504 1504 1505 1506 1507 1508 1508 1509 1510 1510 1511 1512 1513 1514 1515 1516 1517 1517 1515 1515 1516 1516 1517 1518 1519 1520 1521 1521 1522 1522
1495 1495 1496 1496 1496 1496 1496 1497 1497 1497 1497 1498 1499 1500 1501 1501 1502 1503 1504 1505 1505 1506 1507 1507 1508 1509 1510 1511 1512 1513 1514 1514 1514 1512 1512 1513 1514 1514 1515 1516 1517 1517 1518
1492 1493 1493 1493 1493 1493 1493 1494 1494 1494 1494 1495 1495 1496 1497 1498 1498 1499 1500 1500 1501 1502 1502 1503 1504 1505 1506 1506 1507 1508 1509 1510 1510 1510 1508 1508 1509 1510 1511 1512 1512 1513 1513
1489 1490 1490 1490 1490 1491 1491 1491 1491 1491 1491 1491 1491 1492 1492 1493 1494 1495 1495 1496 1496 1497 1498 1499 1499 1500 1501 1502 1502 1503 1504 1505 1505 1506 1505 1504 1504 1504 1506 1507 1507 1507 1507